Theta_e
333 331 331 330 329 326 319 314 303 308 305 299 300 302 302 308 308 306 306 308 306 310 317 317 313 312 310 317 323 324 325 322 329 318 318 337 347 351 353 354 354 352 350 350 353 355 356 356 356 357 357 357 357 357 357 357 356 356 356 356 356 355 356 356 355 355 354 353 353 352 352 352 351 351 352 351 350 350 350 349 347 345 346 347 348 347 344 344 346 346 346 346 344 343 343 343 343
327 328 329 328 322 319 311 313 304 303 303 299 301 304 306 307 306 305 305 307 309 309 312 313 313 314 316 325 327 326 327 332 335 333 341 343 349 350 354 356 355 351 350 350 351 352 353 355 356 356 357 357 357 357 356 356 356 356 356 355 355 355 355 355 354 354 354 353 353 352 352 351 351 351 351 350 351 350 351 349 346 347 348 348 347 346 344 345 346 347 347 347 347 346 344 342 342
328 324 320 321 320 318 317 310 299 301 299 298 302 305 307 305 304 306 307 308 309 311 312 312 313 314 318 323 323 323 327 336 338 338 340 347 341 348 354 356 355 352 351 350 349 350 352 353 355 355 356 357 357 356 356 356 356 356 355 355 355 355 354 354 354 354 353 353 352 351 351 351 350 350 351 350 350 350 350 351 349 350 347 347 346 345 347 347 347 347 347 347 347 347 346 344 342
331 323 319 317 312 314 309 305 301 299 299 301 301 305 306 305 305 306 308 309 310 311 311 311 312 327 324 322 328 326 330 331 338 337 336 341 346 351 354 355 355 351 350 349 349 349 350 354 354 355 355 356 356 356 356 356 356 355 355 355 354 354 354 354 353 353 352 352 351 351 350 350 350 351 351 350 351 351 351 351 351 348 346 346 347 347 347 348 348 347 347 347 348 347 347 346 343
326 322 323 317 313 306 305 304 302 302 297 301 301 304 306 306 306 307 308 310 310 311 310 312 313 326 332 333 332 326 329 336 338 341 340 346 353 354 355 355 353 351 348 349 350 349 351 353 354 354 355 355 355 355 355 355 355 355 354 354 354 353 353 353 353 352 351 350 351 351 350 350 351 351 351 353 353 352 352 351 350 347 347 348 348 349 350 349 349 349 348 348 347 347 346 346 344
323 321 321 321 311 318 310 302 301 300 303 306 303 304 305 308 306 308 308 310 311 311 312 313 315 324 324 333 337 334 338 334 338 340 344 345 352 356 355 355 351 350 348 349 350 350 350 354 354 354 354 354 355 355 354 355 354 354 354 354 353 353 353 353 353 352 351 351 351 351 350 351 351 350 351 353 353 352 348 350 350 349 348 348 348 348 349 349 348 348 348 347 347 346 346 345 346
319 317 314 315 314 312 302 301 301 302 305 306 305 305 306 307 309 309 310 311 312 312 316 316 320 327 327 335 339 341 344 344 340 341 347 350 354 355 356 352 350 349 349 348 350 349 350 352 352 353 354 354 354 354 354 354 354 354 354 354 353 353 353 353 352 352 352 351 351 351 351 351 350 350 351 353 352 348 348 349 348 348 350 349 349 350 350 349 348 348 347 346 346 346 346 345 345
323 314 311 305 305 304 300 301 302 305 304 307 307 306 307 307 309 309 309 307 309 309 314 317 318 322 327 334 330 341 344 345 345 347 349 352 355 356 355 353 350 349 349 350 350 349 354 351 352 353 353 353 353 353 354 353 354 354 354 354 353 353 353 352 352 352 351 351 351 350 350 349 350 351 351 352 349 348 348 348 348 349 349 350 350 350 349 349 348 347 348 348 347 346 345 346 345
318 315 318 307 302 305 301 301 303 307 306 306 307 307 312 309 308 309 308 312 312 312 312 314 314 316 326 332 333 340 341 344 346 348 351 353 353 354 354 352 350 349 350 351 349 350 350 351 352 352 352 352 353 353 353 353 353 353 353 354 353 353 352 352 351 351 350 351 351 350 350 350 349 351 350 350 350 349 348 349 350 349 350 350 349 349 349 348 347 347 346 346 346 346 346 345 346
314 314 307 303 305 301 301 301 301 304 305 306 305 307 307 309 309 309 310 311 314 316 313 314 315 314 331 330 332 340 339 346 346 348 352 353 355 355 354 354 351 351 351 351 350 348 348 353 351 351 351 352 352 352 352 352 353 353 353 353 353 352 352 352 351 350 351 351 351 350 349 349 349 349 349 348 349 349 349 349 349 350 350 349 349 349 348 347 346 346 346 346 346 346 345 346 347
309 310 312 304 300 299 300 301 302 305 305 306 306 308 308 310 309 309 311 314 318 314 314 314 314 321 327 331 334 345 348 345 345 345 351 353 354 354 353 354 352 352 350 352 350 350 349 350 353 351 351 352 351 351 351 352 352 353 353 353 352 352 351 351 351 350 351 351 351 349 349 349 349 349 349 348 348 349 348 349 349 349 349 348 348 347 347 346 346 347 346 346 345 345 346 346 345
307 306 306 299 300 300 301 301 303 304 305 305 305 308 310 309 309 308 313 312 317 313 311 313 315 329 328 329 332 343 346 346 347 349 351 353 351 352 352 352 352 352 353 352 351 351 350 351 351 352 352 352 351 351 352 352 353 352 352 352 352 352 351 351 350 348 347 349 350 349 349 348 348 349 349 349 349 348 349 349 349 349 348 348 347 347 346 346 346 346 346 345 345 346 346 346 345
307 310 304 300 300 302 303 302 302 303 303 304 306 307 310 309 307 310 315 315 317 311 310 315 328 330 324 329 337 343 342 346 348 350 352 351 351 352 353 351 351 352 353 353 351 349 351 349 349 350 350 352 351 352 352 352 352 351 352 352 351 352 351 351 349 348 349 349 348 348 348 348 348 348 348 348 348 348 348 348 348 348 347 347 347 346 346 346 346 346 345 345 345 346 345 346 345
307 309 306 300 305 302 302 302 303 301 301 306 308 308 309 308 309 311 314 313 316 317 320 325 325 332 330 333 335 337 341 346 347 348 349 352 350 350 351 350 351 352 353 352 349 349 349 348 348 350 351 351 351 351 351 352 352 352 351 351 351 351 351 350 349 349 349 348 348 347 348 347 347 348 348 348 348 348 348 347 348 347 347 347 347 346 346 346 346 345 345 345 345 345 345 345 345
308 310 305 303 301 303 303 299 301 301 301 306 307 308 308 311 310 311 314 316 321 326 330 327 330 325 322 327 329 336 342 346 348 351 352 350 349 349 350 350 351 353 351 350 349 349 347 347 347 350 350 348 350 352 351 352 351 352 351 351 351 350 350 350 349 348 349 349 349 348 347 346 347 348 348 348 347 348 348 347 347 347 347 346 346 346 345 345 345 345 345 344 345 345 345 345 344
311 309 305 301 299 300 302 301 303 301 302 307 307 309 308 309 312 309 315 323 322 330 327 322 332 326 328 326 333 340 344 346 347 350 349 349 350 350 348 348 349 349 349 349 348 348 348 347 347 347 348 349 350 348 350 351 352 351 351 351 350 350 350 350 350 349 348 349 349 348 348 349 349 348 348 348 347 347 348 345 347 347 346 346 346 345 345 344 344 345 345 344 344 344 345 345 344
311 309 302 300 298 300 302 302 302 299 304 307 308 308 305 306 311 312 315 323 321 326 329 330 327 333 331 331 336 344 345 347 349 349 348 346 346 345 346 346 347 348 348 347 348 348 347 348 348 346 348 348 348 348 349 350 351 351 351 351 350 350 350 350 350 349 350 349 349 349 348 349 348 350 347 349 347 348 347 346 347 347 346 346 345 345 344 343 343 343 343 344 344 344 345 344 343
309 302 301 299 301 300 304 303 304 305 304 306 307 307 306 305 309 311 314 318 321 325 331 333 337 338 333 337 339 344 344 346 348 346 345 344 345 344 343 344 345 344 346 346 348 348 348 348 348 348 347 349 348 348 348 349 351 349 349 351 350 351 350 351 351 350 350 350 349 349 350 350 346 346 346 346 347 347 347 345 345 346 345 345 344 344 344 343 343 342 341 342 344 345 345 345 345
305 302 301 299 303 304 306 306 306 305 304 306 306 308 307 306 308 311 309 314 318 324 329 330 329 338 338 339 341 343 345 345 346 346 344 342 342 340 340 342 343 343 344 345 347 348 349 349 348 347 348 349 351 350 349 348 349 348 348 348 350 349 350 349 350 350 347 349 349 348 348 346 346 344 345 346 346 345 346 344 345 345 345 345 344 344 343 342 341 340 340 339 341 345 344 344 344
307 303 300 301 306 306 307 306 306 306 306 305 306 307 307 308 309 312 308 308 312 319 325 328 329 333 333 332 339 342 344 344 345 344 342 342 342 340 340 342 342 342 343 345 346 348 350 349 347 349 349 351 350 347 347 347 347 347 345 346 346 346 349 348 347 348 350 346 344 343 345 343 343 346 346 346 346 346 345 344 344 344 344 343 343 343 343 342 341 340 340 339 338 343 344 344 343
306 303 301 304 307 304 306 306 306 307 307 306 305 307 306 308 309 309 309 307 309 321 324 326 328 332 337 337 339 342 342 344 344 344 343 342 342 343 341 342 342 342 344 347 346 346 347 349 349 349 348 348 348 347 347 345 347 346 344 347 346 345 345 346 349 351 347 345 341 340 342 341 342 345 345 345 343 344 346 344 344 343 344 344 343 343 341 339 339 337 337 337 338 339 339 343 344
307 303 305 306 307 304 306 307 307 306 307 305 306 304 305 310 309 309 309 306 308 314 323 329 331 334 336 335 338 341 342 343 343 343 342 342 341 341 343 343 346 346 346 343 343 346 344 347 348 348 347 348 348 347 346 345 345 344 343 344 347 349 350 351 350 346 345 344 342 340 342 344 342 343 344 342 340 341 340 339 342 341 340 341 341 338 338 336 338 338 335 333 337 339 340 341 343
301 305 306 307 307 305 308 308 307 306 306 305 305 307 309 307 306 309 308 308 310 316 324 328 332 333 334 337 339 340 341 342 343 342 341 340 341 342 341 342 343 343 344 342 343 342 345 344 346 351 347 348 348 347 346 345 345 345 348 347 345 343 346 347 346 345 343 344 343 342 342 340 339 337 339 341 340 341 339 338 339 341 340 338 339 338 340 340 339 337 337 338 339 337 339 342 342
305 301 306 306 307 305 307 307 307 307 306 305 308 309 306 306 303 309 308 310 311 313 321 325 334 337 337 335 338 340 340 341 342 344 343 341 342 342 342 342 344 346 344 344 343 343 344 346 347 347 349 348 346 348 346 346 349 349 349 347 347 347 347 347 346 345 344 343 342 342 344 344 341 340 342 343 343 345 343 344 343 340 342 341 342 342 340 337 338 339 341 340 337 338 338 341 341
303 302 305 306 307 307 308 307 307 307 307 309 308 305 305 306 306 307 307 310 311 314 317 327 331 336 331 331 337 340 339 342 341 343 343 342 343 343 343 344 345 346 343 345 343 342 346 345 347 347 351 348 348 348 347 347 347 348 347 347 346 346 347 346 344 343 342 341 341 342 344 348 342 342 343 343 343 343 343 343 340 339 341 340 341 342 341 342 340 339 340 338 338 337 336 337 337
304 304 305 305 305 307 307 307 307 307 308 308 306 305 306 307 308 306 308 310 312 318 319 326 329 331 335 334 337 339 339 340 341 340 340 343 343 342 342 343 345 344 345 345 347 347 345 345 343 343 343 346 346 345 348 344 347 345 347 346 346 346 345 344 343 341 341 342 344 345 348 348 342 342 342 342 339 340 339 341 341 340 341 340 341 341 341 340 338 337 337 337 333 334 334 335 337
307 305 305 305 306 306 307 306 307 308 307 307 304 304 305 308 306 302 309 311 314 316 319 327 325 327 330 328 334 340 340 340 340 342 340 341 341 341 342 343 342 341 343 346 346 345 345 343 344 342 344 343 346 345 346 345 344 344 345 347 345 343 343 342 342 343 344 343 344 346 347 346 345 343 343 342 342 341 341 342 342 342 343 343 344 342 344 343 342 341 340 340 338 336 334 334 334
306 307 306 305 306 307 307 307 306 307 305 306 306 304 305 306 306 304 309 314 315 315 320 325 324 327 328 333 337 339 340 341 341 341 339 339 339 340 341 343 344 343 345 346 346 345 341 346 345 345 345 344 346 344 346 344 344 344 346 344 344 343 343 343 344 346 345 344 347 349 347 349 346 344 344 343 343 343 342 343 344 344 343 343 345 344 343 345 345 344 345 345 345 342 342 339 335
305 305 300 302 304 303 305 304 305 306 304 307 307 303 302 303 302 307 310 315 314 316 321 324 323 328 330 333 336 336 337 339 340 339 340 340 341 343 341 344 344 343 344 345 345 342 342 345 344 344 345 346 346 343 345 346 342 342 343 343 346 344 344 342 341 341 343 345 346 347 348 347 346 346 346 344 343 343 343 344 343 345 344 345 346 346 344 345 344 343 342 344 341 341 341 340 337
306 304 302 301 301 300 304 306 306 304 305 306 305 294 298 302 305 307 310 312 313 314 320 322 324 324 328 333 334 335 337 339 339 339 340 341 342 343 342 344 344 344 343 346 346 340 344 346 345 344 340 341 342 345 346 344 344 343 342 344 344 345 344 343 342 346 345 346 346 347 348 347 347 347 346 346 344 343 344 344 343 343 344 345 346 346 343 342 341 340 342 339 339 340 339 339 336
300 303 303 298 298 298 305 305 305 302 306 305 305 295 298 303 305 308 310 312 312 312 317 321 322 324 324 331 333 333 335 338 339 340 341 342 344 343 343 345 345 345 344 343 343 345 346 345 344 342 339 341 343 340 345 344 344 343 343 343 345 346 343 342 342 344 343 345 346 346 348 346 347 346 346 346 346 344 343 343 343 344 345 345 343 344 345 342 343 342 340 338 338 337 337 336 336
302 298 296 300 297 300 303 306 305 300 304 306 303 297 298 303 306 308 311 312 312 311 316 320 322 324 325 326 329 332 333 336 339 340 341 342 343 343 344 343 345 346 345 345 345 346 346 347 347 341 340 341 341 345 346 345 346 344 343 343 342 345 343 342 342 344 345 344 344 345 346 346 346 346 347 347 346 344 342 343 345 345 345 344 343 344 344 341 341 341 340 342 337 336 338 337 340
302 298 298 298 298 299 300 303 306 305 304 305 302 297 301 301 307 308 311 311 311 311 314 319 320 324 326 325 327 328 331 334 335 336 340 343 343 343 343 343 343 345 346 345 344 345 345 346 348 345 344 348 344 342 346 344 346 343 343 342 344 345 343 342 343 344 343 344 342 341 345 345 346 346 347 347 346 344 340 340 346 346 345 344 344 344 342 343 341 340 341 342 341 342 333 333 335
299 300 297 300 298 299 298 303 305 304 302 300 303 299 300 304 306 309 311 311 310 310 311 317 320 322 325 326 327 329 329 332 333 335 338 342 342 343 344 342 344 346 346 346 346 345 343 344 346 346 346 346 347 344 344 344 345 343 342 343 345 343 343 342 344 342 342 341 341 341 344 345 345 345 346 347 348 343 341 341 343 344 345 344 347 344 341 342 340 341 339 341 339 338 335 335 335
297 298 297 297 300 301 300 299 303 303 303 300 302 301 301 303 306 307 309 310 309 310 311 316 319 321 323 322 325 325 326 330 333 336 339 342 343 342 342 342 344 346 346 346 347 346 346 345 344 348 344 346 345 345 345 345 343 342 344 344 344 344 342 343 344 343 341 340 344 342 343 345 345 346 347 346 347 344 342 341 344 345 344 343 342 342 342 341 341 341 340 339 341 338 335 336 335
300 300 299 298 297 298 297 301 303 303 301 300 300 299 300 302 303 305 308 309 309 310 313 314 318 320 322 322 323 324 325 329 332 333 337 342 342 342 341 341 345 344 345 345 345 346 345 346 345 343 347 343 344 344 345 340 340 338 337 340 341 341 342 339 341 341 342 341 342 342 343 344 344 346 346 347 346 343 341 343 344 344 344 342 340 340 339 339 340 341 340 339 338 337 337 338 337
301 301 300 300 299 300 303 303 303 304 300 300 301 301 301 302 304 306 307 308 309 309 310 311 314 318 320 321 322 325 327 328 328 329 335 339 341 341 342 341 340 343 345 345 345 344 345 343 343 341 342 346 344 339 338 337 336 337 339 339 338 340 339 341 340 342 341 340 341 342 344 344 344 345 345 346 344 342 342 342 343 343 342 341 340 341 341 340 341 341 339 339 337 335 335 337 337
300 300 299 298 298 297 301 302 304 305 301 299 302 301 301 303 304 305 307 307 306 308 308 310 311 313 316 319 321 323 327 327 329 332 331 336 338 341 342 342 341 339 341 343 343 343 345 345 344 344 342 343 342 343 343 340 337 337 337 335 338 338 340 339 339 341 345 341 341 342 343 344 344 345 344 344 344 343 341 342 341 341 341 340 341 342 341 339 340 339 339 336 336 334 334 337 336
302 299 299 297 298 301 302 302 304 304 301 299 301 299 300 303 304 305 306 306 308 309 310 310 311 311 312 315 320 323 327 325 323 325 329 337 339 340 340 341 341 341 341 343 344 344 344 344 344 343 341 340 339 338 339 337 338 338 340 340 338 338 341 340 341 343 340 338 340 341 344 344 344 343 344 343 344 342 342 340 340 340 340 340 339 339 339 339 339 338 338 335 333 335 334 335 337
300 299 297 295 299 297 295 301 302 303 301 299 301 299 300 303 305 305 307 306 307 309 309 309 311 311 311 312 314 322 323 322 322 324 327 336 339 339 340 340 341 342 341 342 342 343 342 343 341 340 337 339 339 339 337 338 337 337 336 335 337 339 338 342 341 341 339 339 339 343 340 344 342 342 342 342 341 342 342 342 340 339 341 340 339 339 338 338 339 339 339 337 335 331 331 331 338
300 299 298 297 298 299 299 299 302 303 303 304 301 298 298 300 300 301 305 307 306 307 309 309 310 310 312 313 314 324 321 322 323 326 331 334 337 338 339 340 341 341 341 341 342 343 342 341 341 337 335 338 338 338 338 338 333 332 333 336 334 334 338 337 336 335 336 336 334 335 340 341 342 340 341 341 340 341 343 342 340 340 339 341 339 338 337 336 337 338 339 337 335 332 330 332 332
298 301 300 299 300 299 300 301 300 298 297 301 299 292 292 299 300 300 303 304 304 306 307 307 309 309 310 310 312 314 323 322 325 325 327 328 334 336 339 339 340 341 341 342 342 342 343 343 339 338 340 339 338 338 335 336 332 333 332 330 328 330 330 332 330 329 332 331 331 338 338 341 342 340 340 341 340 340 342 342 342 339 340 340 338 339 336 335 335 335 337 338 336 336 334 329 332
296 298 302 301 300 300 299 299 298 293 291 299 302 292 289 299 298 301 303 303 304 306 306 307 307 308 308 309 310 311 315 323 325 327 328 325 330 333 338 338 339 340 341 344 343 343 342 341 339 338 339 333 336 334 333 334 333 334 332 332 332 331 331 331 336 337 333 336 334 336 339 342 342 342 342 342 342 342 343 342 342 341 339 338 339 339 338 336 334 335 337 338 337 336 335 330 331
294 301 302 301 300 299 299 298 297 295 300 301 300 298 292 293 297 302 303 303 303 304 305 306 306 308 308 310 310 312 313 316 325 325 328 328 328 334 337 339 339 339 341 343 343 337 341 333 334 342 334 331 330 334 331 333 333 334 334 334 333 330 333 332 334 334 334 334 340 337 340 342 343 343 340 339 339 337 339 342 343 342 340 340 338 339 338 339 337 336 337 339 337 337 336 333 330
298 301 301 300 300 299 299 298 297 297 297 292 297 300 293 292 297 302 303 300 302 303 305 307 310 312 314 315 315 313 313 313 323 324 325 324 331 336 339 339 340 340 341 335 329 329 330 331 332 332 332 330 332 335 333 333 334 335 335 334 332 334 335 335 334 333 334 335 332 340 339 340 339 339 339 339 338 338 338 338 338 337 340 340 336 338 339 338 339 336 338 336 338 337 338 337 336
301 303 303 302 301 300 299 297 296 296 293 288 294 299 292 293 298 298 301 300 301 303 307 312 314 316 317 317 317 317 316 314 323 326 328 329 330 337 340 340 341 342 339 332 328 327 328 331 332 331 327 332 333 335 334 332 331 333 334 333 334 331 332 332 331 332 332 333 335 336 339 339 339 338 340 339 339 338 338 338 337 337 338 337 335 335 336 337 339 339 339 338 337 336 337 337 335
304 302 300 299 298 298 299 298 297 295 287 290 296 298 295 289 297 298 297 300 305 308 310 312 316 317 317 317 318 315 314 315 322 327 327 325 332 337 339 337 338 338 337 335 328 325 327 331 329 330 329 333 333 335 333 331 331 333 333 332 331 330 331 332 331 332 333 331 331 332 337 337 338 338 339 340 339 338 339 339 338 337 338 338 335 336 338 338 339 339 339 339 335 336 337 337 336
302 299 297 296 295 297 296 296 297 287 285 293 297 297 297 287 294 299 305 306 309 308 309 311 315 315 315 317 317 316 318 318 326 329 329 331 334 336 337 335 334 333 333 332 329 327 328 330 328 327 328 330 331 332 332 332 332 333 334 333 332 331 332 331 332 331 331 330 329 331 335 337 337 338 339 338 338 338 339 339 339 337 337 338 336 336 341 339 339 339 339 338 337 338 337 335 336
300 299 297 291 289 289 286 291 285 286 285 294 297 298 294 294 297 302 305 308 311 313 312 313 314 315 319 319 320 317 318 327 328 329 330 331 332 333 333 332 331 331 331 330 331 330 330 330 329 326 327 329 330 331 330 331 333 333 334 333 333 333 334 333 333 329 330 330 331 330 334 335 334 334 334 336 336 338 337 338 337 335 335 337 337 340 341 339 338 338 337 337 336 337 336 335 333
298 296 295 290 285 284 282 287 289 289 293 297 297 300 293 297 301 306 309 312 312 315 316 317 317 320 320 320 321 321 325 327 329 330 331 330 331 332 331 331 331 331 332 332 332 331 332 332 330 328 327 329 329 330 331 331 333 334 335 335 335 334 335 336 334 330 329 331 330 333 334 332 333 333 333 334 336 336 336 336 336 336 335 335 338 341 340 339 339 337 337 336 337 339 336 336 336
297 299 296 293 291 287 281 285 283 286 289 295 299 294 291 291 295 307 312 314 314 315 316 319 321 322 324 323 323 323 324 326 329 329 328 329 331 331 329 331 331 330 331 332 332 332 332 332 332 330 328 329 330 331 332 331 331 333 335 336 337 336 336 335 333 331 329 331 331 334 333 333 332 333 333 335 336 336 336 335 335 335 334 335 335 337 339 340 339 336 336 336 334 336 335 337 334
300 300 300 294 291 297 288 290 291 290 289 290 294 292 298 298 306 309 312 313 313 314 316 317 319 321 321 322 321 322 322 324 326 327 326 327 329 329 328 328 329 330 330 331 332 332 332 333 333 333 329 330 331 331 332 331 332 333 334 335 335 335 336 335 335 335 333 336 335 332 333 333 333 333 334 333 335 335 335 334 335 334 335 335 334 334 334 336 339 337 335 336 335 335 335 336 336
298 298 293 295 301 298 291 291 296 292 290 287 294 296 299 306 303 306 309 310 311 312 313 315 318 319 321 319 321 321 325 323 325 325 325 326 328 328 328 328 328 329 331 331 332 332 331 331 330 331 330 330 331 331 331 332 332 333 332 334 335 335 335 336 334 335 336 336 336 334 332 333 334 334 334 335 334 334 335 335 334 333 334 334 333 333 333 332 337 337 335 335 334 336 337 333 336
300 295 298 302 303 301 295 287 289 288 285 286 293 290 294 294 290 305 307 307 310 312 313 315 317 318 318 320 320 320 321 322 323 324 326 327 327 326 327 328 328 329 330 332 331 332 332 332 331 330 329 328 330 330 332 332 331 331 332 333 333 332 333 333 335 333 335 333 333 333 333 333 332 332 333 334 334 334 335 334 333 333 334 333 333 332 331 332 335 334 334 335 336 336 336 334 336
299 298 305 296 289 288 295 290 283 284 283 286 290 294 295 296 295 300 302 306 310 312 313 313 313 316 317 317 319 320 320 320 321 321 323 324 325 326 327 327 327 328 330 330 331 331 331 332 332 332 331 331 331 331 332 333 332 332 333 334 332 331 332 331 335 336 335 333 332 333 333 333 334 333 332 332 333 332 333 333 333 332 333 332 332 332 332 332 332 331 332 334 336 337 334 335 336
303 304 300 302 299 296 289 290 293 292 285 285 287 292 287 298 298 300 304 307 309 309 308 311 312 315 316 316 317 319 320 320 321 321 322 323 324 326 327 328 327 329 329 330 330 330 329 331 332 332 333 331 331 332 333 332 333 333 333 334 335 333 332 332 334 335 333 332 331 332 333 333 332 331 332 331 331 331 331 331 329 331 330 331 331 331 331 331 331 331 331 330 333 334 334 334 333
296 296 296 297 298 301 298 300 293 290 287 287 286 285 292 300 306 306 306 309 310 311 310 312 314 316 316 318 318 318 318 319 321 322 322 324 324 326 327 327 327 330 330 330 330 330 331 331 330 330 331 331 330 332 333 332 333 332 330 330 333 331 333 335 333 334 332 332 333 333 333 333 331 331 331 330 330 329 330 329 328 328 328 329 330 331 331 331 330 329 329 329 329 329 326 327 328
297 296 294 296 295 293 289 288 296 293 289 285 285 284 294 304 307 308 310 311 311 313 314 313 315 314 317 316 316 317 318 320 321 323 323 324 324 326 326 327 328 329 330 329 329 329 329 330 330 329 331 330 331 332 331 332 333 332 331 331 333 333 332 330 332 333 331 331 331 332 333 331 331 330 330 330 329 329 329 329 328 327 328 328 329 329 329 330 328 329 329 328 328 326 326 326 327
Wind_Speed
9 9 8 8 7 7 8 7 7 7 8 10 9 9 2 1 2 4 3 2 8 4 4 1 3 4 7 8 11 9 9 8 9 7 5 4 3 11 11 14 18 16 16 15 13 13 14 13 14 14 15 16 16 17 17 18 19 18 18 18 18 17 16 16 15 14 14 13 12 12 12 11 11 12 12 13 12 12 12 13 12 13 14 14 14 14 12 13 12 12 13 12 12 11 11 11 11
9 7 6 7 7 7 7 7 7 7 8 9 10 10 6 5 0 7 1 1 8 6 3 5 6 5 3 5 6 4 8 11 11 9 7 5 7 9 14 16 16 17 16 14 13 13 13 14 14 14 16 16 16 17 17 18 18 18 19 18 17 16 16 16 15 15 14 13 13 12 12 11 11 11 12 11 11 12 11 12 12 14 13 14 14 13 12 13 11 12 11 12 12 12 11 11 10
6 6 7 7 7 8 6 6 8 8 9 8 7 6 8 7 2 6 4 2 5 7 2 5 6 7 8 4 9 4 6 8 10 9 8 8 8 9 13 15 16 16 16 14 13 13 12 14 13 15 19 16 16 17 18 18 18 18 18 17 17 17 16 16 15 14 13 13 13 13 13 12 12 12 12 11 11 11 10 9 13 14 14 14 12 13 12 12 11 10 11 11 11 11 10 10 10
11 8 7 6 6 6 7 6 9 9 8 6 7 5 3 2 6 3 3 4 4 3 4 5 7 9 7 7 6 2 8 8 8 5 6 7 6 11 13 16 16 14 14 12 14 13 12 14 13 16 19 17 17 18 18 18 18 18 17 17 17 16 15 15 15 14 13 13 13 13 13 13 12 12 11 11 10 10 10 11 13 14 13 13 13 12 11 11 10 10 10 10 10 10 10 9 9
9 7 9 8 8 7 6 7 8 8 9 7 3 7 5 3 2 1 3 3 6 6 3 3 6 5 5 8 5 2 8 9 4 6 6 7 11 13 15 15 15 14 14 14 14 13 14 17 14 16 16 19 18 19 18 18 18 19 18 17 17 16 16 15 15 14 13 14 14 12 12 12 11 11 11 11 10 9 9 14 11 12 13 13 12 10 9 9 9 8 8 8 7 8 9 9 8
8 7 7 8 7 6 7 8 8 10 9 7 6 9 2 6 3 5 4 5 3 5 3 5 7 7 7 8 7 5 7 2 5 5 6 9 14 17 16 14 14 14 14 13 13 13 15 15 14 15 17 18 17 17 19 20 19 19 18 17 17 17 16 16 15 14 14 14 13 12 12 12 12 11 11 12 10 8 8 9 12 11 12 12 10 10 10 9 8 8 7 7 7 7 7 8 8
7 6 6 7 8 7 7 8 9 8 4 2 8 6 9 5 4 5 4 4 6 4 4 5 4 2 7 7 11 9 5 3 5 7 5 12 16 16 16 14 14 14 14 12 12 13 18 14 15 15 16 17 17 17 18 19 19 19 18 16 16 16 16 15 14 14 14 14 12 12 12 12 11 11 13 13 11 11 9 10 12 12 10 10 11 10 9 9 8 7 7 7 6 6 6 6 6
8 9 6 8 6 6 8 9 10 7 6 7 6 5 4 4 5 3 5 3 6 8 10 3 5 9 8 6 6 6 4 2 6 9 11 13 15 15 15 14 15 16 14 13 13 14 17 14 14 15 15 16 18 17 17 18 18 17 16 16 16 15 15 15 14 14 13 13 12 11 12 12 12 13 13 13 12 12 11 11 12 10 9 10 10 10 9 8 7 7 8 7 5 5 4 4 4
7 9 4 8 9 6 8 9 9 6 6 4 4 3 2 5 4 5 7 1 5 8 6 5 5 10 8 9 8 5 5 5 8 11 14 14 15 15 11 15 15 15 16 14 14 15 16 13 14 14 15 15 16 16 17 19 19 18 16 15 15 13 14 14 14 14 13 12 11 11 12 12 12 13 13 14 12 12 12 12 11 11 11 11 11 10 8 9 8 7 7 6 4 3 3 3 5
7 8 7 6 7 9 7 8 8 6 3 6 2 5 3 4 4 4 6 7 5 5 3 4 2 6 9 10 9 5 6 8 11 12 14 15 14 13 14 14 15 16 15 15 15 15 14 17 13 13 14 15 16 16 16 15 15 15 14 14 13 13 14 14 13 14 12 11 11 11 12 12 12 12 13 13 13 12 12 12 11 11 11 11 10 10 9 8 7 7 6 5 4 4 4 5 6
8 7 7 8 8 8 8 7 8 6 8 5 3 2 2 5 3 5 6 7 2 7 3 4 9 6 8 9 7 4 8 10 12 13 14 14 14 14 13 13 14 15 16 16 16 14 15 16 16 13 13 14 14 14 14 14 14 14 13 12 13 14 14 14 13 11 10 11 11 11 9 11 12 13 13 13 12 11 12 12 11 12 11 12 11 10 9 8 8 8 7 6 5 7 6 6 8
8 8 7 8 8 8 6 8 3 4 4 2 6 2 3 4 5 3 3 9 4 6 8 8 5 15 9 5 4 6 9 10 11 12 12 13 12 14 13 12 14 14 16 17 16 15 15 15 15 16 13 14 13 13 14 14 14 13 13 13 13 13 13 13 13 13 12 11 10 10 8 9 13 14 12 12 10 11 11 11 11 12 12 12 10 10 9 8 8 7 6 6 7 7 8 8 8
9 6 8 7 8 7 9 6 5 4 4 5 7 3 1 4 5 4 4 8 2 4 7 8 5 12 7 5 6 9 11 12 11 12 12 12 11 9 11 12 14 16 16 17 17 17 17 15 14 14 15 14 12 13 13 14 14 14 14 13 13 13 14 14 15 15 13 11 12 11 9 10 11 12 12 12 12 11 12 11 12 11 12 12 11 10 9 9 8 7 7 6 7 8 8 9 8
8 6 6 8 7 9 8 6 5 0 8 9 4 3 3 3 4 6 5 8 4 5 8 5 2 16 10 8 6 8 9 11 13 13 11 11 12 13 13 12 14 14 16 17 17 17 16 15 14 14 14 14 13 13 13 12 13 13 13 14 14 13 13 13 13 12 12 12 13 12 12 12 13 12 12 12 12 12 12 13 12 12 12 12 11 10 10 9 8 7 7 7 8 8 8 8 8
9 5 6 7 9 7 7 9 7 7 3 6 8 2 5 5 4 3 4 7 3 3 2 4 3 7 7 8 7 8 11 13 13 12 12 12 12 13 13 12 14 14 14 15 16 17 16 16 16 14 14 14 14 11 12 12 14 13 14 14 14 14 14 13 15 13 13 13 13 14 15 13 12 12 11 10 12 12 13 14 14 13 13 12 11 11 10 10 8 7 6 7 8 8 9 9 8
7 5 5 7 8 8 6 8 6 6 6 2 6 7 7 2 3 6 5 7 5 1 4 5 3 2 8 10 9 13 15 14 13 12 12 13 12 12 12 13 13 13 13 14 14 15 16 16 15 14 13 14 13 12 12 12 14 15 14 13 14 15 15 14 13 14 15 15 14 14 14 12 12 11 12 11 13 12 13 11 15 14 14 12 11 10 11 9 8 8 7 7 8 8 9 9 9
5 6 7 7 10 8 2 5 4 8 9 4 2 4 5 4 4 1 1 4 7 5 2 1 5 4 7 6 13 18 16 14 13 14 14 12 11 10 10 10 11 11 10 12 13 13 15 16 16 13 14 15 14 13 12 12 13 15 14 15 15 15 15 15 14 13 13 14 13 11 10 9 8 7 9 9 12 10 9 13 14 15 14 13 11 9 9 8 6 7 8 7 7 9 9 10 9
6 7 7 8 7 9 3 6 2 7 2 6 3 3 3 6 3 3 5 7 1 3 3 3 6 4 5 12 16 17 17 17 15 16 14 13 11 11 11 11 12 12 12 12 13 13 13 14 15 15 14 16 14 12 10 10 12 13 13 13 12 13 14 14 13 11 12 11 11 9 4 4 4 4 4 8 7 9 10 13 14 14 14 13 11 10 8 6 5 5 7 7 7 8 12 8 8
8 7 7 8 8 6 7 8 5 4 8 2 3 3 2 4 5 5 10 6 8 6 5 8 6 6 14 14 15 17 18 16 16 16 16 15 12 13 11 11 12 13 12 12 10 13 12 11 13 14 15 14 15 13 11 11 13 11 13 12 10 13 12 12 10 11 9 8 9 5 4 2 2 4 6 6 7 8 11 13 14 14 14 13 11 10 9 6 4 2 5 8 7 10 9 6 6
9 9 8 9 11 4 6 2 6 5 5 5 4 3 5 4 5 4 9 5 5 7 3 7 9 10 13 14 17 17 16 17 15 14 15 14 12 12 12 12 11 12 13 12 11 10 10 8 11 12 13 14 13 12 11 11 11 11 11 11 10 10 10 8 8 8 7 8 6 4 3 2 2 1 5 10 11 9 10 13 14 14 13 12 12 9 9 8 7 4 4 5 7 7 6 4 5
7 10 9 6 10 7 2 3 1 4 5 7 6 5 8 3 4 5 5 10 10 11 11 10 9 10 13 14 15 15 16 16 16 15 14 14 12 10 10 11 11 11 11 9 7 7 6 7 7 9 13 13 13 11 11 11 11 10 10 9 10 9 9 8 7 5 6 7 5 4 4 3 3 4 7 7 8 8 9 10 10 8 8 9 12 7 7 7 7 6 5 6 6 6 5 5 3
6 10 11 12 5 7 1 2 6 5 5 8 6 8 7 6 8 8 6 9 2 5 10 12 8 13 12 14 13 15 15 16 15 14 15 14 14 12 10 10 9 9 10 10 10 7 8 10 11 12 13 14 12 11 11 11 11 10 11 10 8 8 7 7 6 6 5 5 7 8 6 6 6 7 9 9 8 8 7 7 7 7 7 8 9 5 6 7 7 7 6 7 7 4 4 5 6
10 9 11 10 7 9 4 2 3 2 7 7 6 6 6 7 7 7 5 8 5 3 2 2 8 10 12 11 15 14 15 16 16 16 14 14 13 12 11 10 10 11 10 11 11 10 10 11 10 11 12 12 12 11 11 10 10 8 8 9 10 8 8 6 6 6 4 6 5 6 7 10 13 10 9 8 8 8 7 7 6 6 6 6 7 5 6 6 6 6 7 7 6 7 7 6 5
11 10 6 10 10 10 7 8 5 7 8 9 7 7 9 7 12 2 6 5 2 3 5 6 8 16 11 14 13 14 15 15 15 13 13 12 13 12 12 12 11 9 10 11 12 12 13 16 15 13 12 13 11 10 10 10 7 7 8 8 7 7 7 6 6 6 5 5 5 4 6 10 8 9 8 7 6 5 5 4 5 5 4 4 5 5 5 5 5 4 5 7 5 4 4 5 5
12 12 10 5 6 8 8 8 8 8 8 8 9 10 9 8 11 4 9 8 2 3 6 8 9 9 14 12 13 13 13 14 13 13 11 10 11 12 11 9 11 9 10 9 12 13 13 13 12 9 10 12 8 10 8 7 7 7 7 7 7 7 6 6 6 4 6 4 6 10 10 5 8 8 7 7 6 6 5 4 4 4 3 3 3 2 4 3 3 3 3 3 3 4 5 5 5
14 12 10 9 8 7 7 8 8 8 6 7 9 11 9 11 7 11 9 9 2 3 6 9 9 11 12 11 12 12 12 13 12 13 12 10 10 13 13 11 10 10 7 10 9 10 13 5 10 11 7 9 10 8 8 8 5 4 7 7 6 6 6 6 5 6 4 4 5 7 7 3 6 7 7 7 7 7 6 6 5 4 4 4 4 3 3 4 4 5 6 6 5 5 6 6 6
4 8 11 12 10 9 8 9 8 8 9 7 10 10 10 8 5 9 14 3 5 7 8 10 10 12 13 14 12 11 11 13 13 11 11 11 11 12 13 12 11 10 7 10 8 7 8 11 7 7 9 7 9 9 7 9 7 6 8 7 7 8 8 6 6 5 5 6 9 7 6 7 5 6 6 6 6 7 6 5 4 4 3 3 3 4 4 3 3 4 5 5 5 5 6 6 9
7 7 7 10 11 11 10 9 9 8 10 12 12 13 11 9 9 12 9 7 5 7 9 11 11 11 11 12 11 10 10 11 11 12 13 13 12 12 13 10 11 10 11 10 8 8 8 10 10 11 8 6 4 4 6 11 8 7 7 7 8 8 8 6 5 7 6 8 6 7 6 6 5 5 6 6 7 6 6 5 4 4 3 3 3 3 4 3 4 4 4 4 7 7 8 8 7
9 8 10 12 13 13 13 13 11 10 9 6 5 11 11 10 13 16 7 8 8 8 9 9 13 11 10 12 11 10 10 10 11 11 12 11 11 11 13 12 12 12 8 10 9 11 8 10 11 10 6 6 7 10 8 8 10 10 8 8 7 9 9 7 5 7 8 5 6 6 6 7 6 5 5 6 7 6 6 5 5 4 3 4 3 3 4 4 4 4 5 4 3 5 3 3 4
8 10 9 11 11 12 14 12 10 8 7 2 2 10 11 15 17 19 10 8 9 10 9 11 8 7 6 11 10 11 10 11 12 12 11 12 11 12 12 12 11 10 9 7 10 10 10 7 6 7 7 7 6 3 6 7 9 10 10 8 9 9 9 9 9 7 5 6 7 7 7 7 6 6 6 6 6 6 6 5 5 4 4 4 3 4 4 4 5 5 5 5 4 4 5 3 4
9 9 9 9 8 12 15 10 9 11 7 7 8 10 10 13 19 19 10 9 11 11 11 11 12 14 10 8 11 11 12 12 13 13 13 12 11 11 13 12 13 12 9 11 12 14 11 10 9 8 9 8 9 10 8 7 7 7 9 9 7 8 8 7 7 7 7 6 7 7 7 7 7 7 7 6 5 5 6 5 5 4 4 4 4 4 5 5 3 4 4 5 4 4 2 3 2
8 9 9 9 10 2 14 9 8 11 11 10 10 9 11 8 12 14 8 10 12 12 12 11 10 14 18 12 10 11 11 11 12 13 13 13 13 11 13 14 13 11 11 11 13 13 13 13 12 13 12 13 13 8 6 5 5 6 7 9 8 8 8 7 7 6 6 6 6 7 7 7 6 7 7 6 5 5 6 5 3 4 5 4 4 4 4 4 3 3 4 2 1 4 4 2 4
9 9 8 10 9 7 8 12 9 8 2 8 10 9 7 14 11 8 9 11 11 12 13 12 12 11 11 14 14 11 11 12 11 13 14 12 12 11 12 13 13 13 12 12 13 15 15 15 13 14 16 15 13 13 10 9 6 7 7 9 8 7 7 6 6 6 6 6 6 7 7 7 7 7 6 7 5 5 5 6 5 5 5 4 3 4 4 3 2 2 1 4 6 4 4 4 5
9 10 9 11 8 9 6 12 8 7 7 8 11 11 12 3 10 8 8 10 13 13 14 14 12 10 11 9 10 11 10 10 12 12 14 13 11 13 12 12 13 13 13 13 13 14 15 15 14 14 14 14 12 13 11 9 6 2 5 6 7 8 7 5 4 4 6 6 7 7 8 7 6 7 7 6 4 4 4 4 5 6 5 4 4 4 3 5 4 3 3 2 3 4 4 3 4
10 9 9 10 10 6 10 6 12 7 9 9 5 9 10 13 4 10 8 11 13 15 14 16 13 12 11 11 11 8 10 12 11 12 13 14 13 13 12 13 12 13 11 13 13 13 13 13 13 13 13 13 10 11 9 8 5 3 3 7 8 7 5 6 6 6 6 6 3 5 8 7 7 7 6 6 4 4 4 4 4 6 5 4 5 4 4 3 2 3 4 3 2 4 1 2 2
9 10 11 10 11 10 11 9 11 7 7 8 10 9 11 13 14 12 10 10 12 13 14 14 13 11 12 12 11 15 14 12 7 7 11 12 11 11 11 12 12 12 11 12 13 13 14 14 12 12 11 12 9 7 9 5 6 5 7 8 8 6 4 5 6 6 6 7 9 8 9 8 7 7 7 6 5 5 4 5 5 6 5 5 5 5 4 4 4 5 4 4 4 4 3 3 3
6 11 7 10 12 9 9 3 6 2 7 9 9 10 11 12 11 10 10 12 11 13 14 14 13 13 14 13 13 11 11 9 10 13 9 10 13 11 11 11 13 12 13 13 13 14 14 13 13 14 12 12 10 11 8 12 8 6 6 8 7 7 6 6 6 6 5 7 9 8 8 7 8 7 7 7 7 6 4 5 5 5 6 5 5 5 4 4 5 5 4 4 5 4 3 3 4
8 11 9 10 11 9 13 8 6 5 6 8 9 11 11 11 10 12 14 10 12 13 14 15 15 16 12 10 17 13 11 9 5 7 11 14 12 13 11 10 12 14 13 14 14 15 14 13 13 10 11 12 10 4 6 7 9 7 7 9 7 8 7 7 7 6 2 5 4 6 8 7 9 7 7 6 7 7 6 3 4 5 5 5 4 4 5 4 5 5 4 5 4 6 4 6 3
8 10 10 10 10 11 3 5 6 4 6 9 13 12 11 12 11 12 13 15 10 11 13 15 16 16 14 16 20 12 10 9 10 11 14 12 13 14 13 12 12 13 14 13 14 14 14 11 10 10 10 8 8 8 7 4 2 4 7 5 6 7 5 4 3 1 3 2 5 8 5 8 7 8 8 8 6 6 6 6 5 5 6 4 5 4 4 5 5 5 5 4 6 3 3 3 5
8 10 11 11 10 10 12 6 2 5 6 9 6 9 9 10 10 13 13 15 12 14 15 15 14 16 17 16 11 11 10 11 14 17 16 13 12 14 14 13 13 11 12 12 13 15 14 13 11 7 4 5 8 9 7 10 4 6 10 7 7 1 3 2 3 3 2 2 4 6 7 5 9 7 9 8 7 6 5 3 5 6 4 5 5 4 5 6 5 5 5 5 5 6 5 7 5
11 12 12 11 13 16 14 5 6 6 8 9 12 12 12 13 14 14 15 16 15 14 15 15 15 15 16 16 15 18 18 14 14 14 12 11 12 14 14 11 11 12 13 14 13 13 12 14 11 9 12 12 7 8 6 8 9 6 7 8 4 2 5 4 1 1 2 3 3 5 8 8 8 8 8 8 8 7 5 7 4 3 6 6 4 3 5 5 6 6 6 5 5 4 5 5 2
10 13 14 15 13 15 14 9 10 10 11 13 14 11 12 13 17 17 15 15 17 15 14 14 15 15 15 17 16 15 18 15 14 12 10 9 9 12 14 15 14 14 15 14 15 13 13 6 8 12 9 6 6 8 7 7 8 8 8 7 7 6 6 6 6 7 5 4 7 10 10 8 8 8 8 8 8 7 8 7 6 7 5 4 6 5 6 6 6 7 6 5 6 3 2 8 6
10 8 14 17 17 14 14 13 12 10 10 7 8 10 8 9 12 11 13 14 14 12 12 14 14 13 14 13 13 15 15 16 15 11 9 10 11 15 17 16 17 18 18 16 13 11 10 9 10 10 6 7 2 9 9 7 8 8 8 8 8 6 8 7 6 4 5 4 7 7 8 7 8 8 7 7 7 6 7 7 7 7 7 7 5 5 4 4 7 6 6 6 5 4 3 5 6
10 7 2 5 7 11 12 13 13 11 11 7 7 8 11 10 10 9 9 11 9 11 14 12 10 11 12 13 14 15 16 16 17 16 13 12 18 20 19 19 17 17 15 12 7 1 3 3 6 5 8 9 3 7 7 4 7 8 9 7 6 5 4 7 4 4 2 6 5 9 7 8 8 7 8 8 8 8 7 7 7 6 5 6 6 6 6 6 5 5 6 5 5 5 5 4 5
8 4 2 7 10 11 12 11 10 11 10 13 10 12 12 12 11 11 11 12 13 11 13 11 9 7 7 10 12 13 14 15 14 17 18 19 19 17 16 15 13 13 7 6 8 7 7 5 4 6 8 11 11 11 11 7 5 6 7 8 8 6 7 4 3 4 2 4 10 10 4 5 7 7 7 7 7 7 7 7 7 7 6 5 5 5 5 5 6 5 6 5 3 4 3 2 2
12 9 6 7 7 8 9 9 11 11 11 12 12 11 11 11 8 10 9 9 9 12 7 9 5 4 5 7 10 13 14 14 11 14 13 12 15 13 12 11 10 7 9 11 11 9 4 5 4 9 12 7 6 12 11 10 3 4 7 8 9 9 7 5 3 4 6 6 6 4 7 7 5 6 6 6 6 6 6 6 6 7 6 5 5 4 5 6 5 6 5 5 4 4 2 4 4
3 2 7 9 10 10 10 10 10 10 12 14 14 16 13 11 7 8 6 3 0 5 5 4 2 4 4 7 9 10 17 16 11 13 13 16 15 9 7 8 2 6 7 12 10 8 3 5 7 8 7 3 7 8 10 10 9 9 9 9 8 9 8 7 7 5 3 4 1 7 6 6 7 6 5 5 5 6 6 5 5 5 5 4 4 4 4 5 6 5 5 5 6 5 4 4 6
12 8 9 8 10 9 9 8 9 9 10 11 14 15 15 13 6 6 8 2 3 2 6 5 2 4 2 5 7 13 13 11 9 10 12 11 9 7 7 7 6 7 9 11 14 11 8 8 8 11 9 12 8 7 10 11 10 12 9 9 9 10 10 8 8 8 6 6 6 9 7 7 5 5 5 5 5 5 4 4 4 5 5 5 4 4 4 5 5 5 4 4 5 5 3 2 4
10 9 9 10 7 5 8 8 10 10 9 10 10 9 10 11 10 5 11 4 5 2 2 1 1 3 2 6 5 4 5 3 3 6 6 7 7 9 7 8 8 8 8 11 14 13 11 11 13 13 11 10 13 13 11 12 12 12 10 9 9 8 10 10 10 7 6 5 6 9 8 7 6 6 6 5 6 6 5 4 4 4 4 4 4 4 5 4 5 5 5 6 5 5 4 6 6
12 11 10 10 8 8 8 8 7 9 11 15 5 6 10 7 3 2 5 4 4 3 3 1 1 0 1 2 2 2 4 3 4 3 4 4 6 6 6 6 6 6 7 9 12 12 12 13 15 15 12 12 14 16 17 14 14 10 9 10 9 9 10 10 7 7 5 5 8 10 7 6 6 6 6 5 6 6 5 5 4 4 4 5 5 4 4 5 5 4 6 5 5 4 3 5 4
12 11 12 10 9 7 8 7 8 10 8 7 8 7 6 10 2 3 6 6 5 5 3 4 3 1 3 1 1 3 3 5 2 4 2 3 3 8 7 6 6 6 7 9 9 9 10 12 13 13 12 12 12 13 14 16 14 14 12 10 9 7 10 8 8 7 7 10 12 7 6 6 6 6 6 6 6 5 4 4 4 4 4 5 5 4 4 5 5 4 4 5 5 5 6 6 5
10 10 10 11 8 6 9 2 6 4 6 8 9 8 5 3 6 4 2 4 5 3 4 3 4 3 2 2 3 5 1 3 3 6 4 5 9 7 7 6 6 6 9 8 9 9 9 9 11 14 16 16 15 13 15 15 15 13 13 12 11 9 6 8 7 9 11 9 6 7 6 6 6 5 5 6 6 6 5 4 5 4 5 5 5 4 4 4 5 4 5 4 4 4 5 6 5
7 11 12 11 8 9 7 8 12 6 6 8 3 7 9 4 10 8 8 7 6 3 5 4 4 3 4 7 4 4 3 4 5 6 6 6 7 8 7 8 7 8 8 9 11 11 10 9 10 14 17 18 18 17 16 15 16 13 13 10 9 10 8 7 8 8 9 7 6 5 6 5 6 6 6 6 6 5 5 4 5 5 5 4 4 4 4 4 5 5 5 7 6 5 4 6 6
6 9 8 8 9 9 6 6 2 6 9 7 10 11 9 10 2 8 5 4 3 6 4 6 4 3 5 5 7 9 8 8 8 6 3 4 4 5 5 6 8 6 7 9 10 10 10 8 9 10 15 19 17 17 17 17 16 15 13 12 8 8 6 2 5 10 9 8 7 6 6 6 7 6 6 6 6 6 5 5 5 5 4 4 4 4 4 4 5 4 4 4 5 5 6 5 6
13 7 2 9 7 9 7 4 9 8 7 6 9 11 9 6 3 8 5 0 2 5 6 5 3 4 5 8 7 10 9 7 5 3 3 4 4 5 6 7 7 7 7 8 9 9 9 9 9 9 11 14 16 14 16 15 15 12 12 12 12 9 8 10 11 9 9 9 8 7 7 6 6 7 6 7 6 6 5 5 6 5 4 4 3 3 2 4 4 4 4 4 4 5 6 5 5
16 11 8 6 8 6 7 7 9 8 8 8 7 11 2 8 2 4 5 6 1 4 5 3 4 5 3 6 7 9 8 6 5 4 5 5 4 5 7 8 8 9 9 8 8 8 9 10 10 10 9 10 13 15 15 17 15 11 12 12 11 7 8 11 9 10 9 9 9 9 8 7 7 6 7 7 7 6 6 7 7 7 7 5 4 3 3 3 4 4 4 4 4 5 4 3 3
12 12 10 8 8 4 7 4 7 7 7 8 5 7 5 4 6 5 7 5 4 3 5 3 4 8 10 8 9 9 7 6 6 4 4 3 4 3 4 4 5 4 4 5 6 8 9 9 7 9 10 12 13 13 15 16 13 13 14 13 12 12 11 10 11 10 10 9 9 7 7 7 7 6 7 6 6 7 6 5 5 5 6 6 4 3 2 3 4 4 4 4 4 4 5 5 4
11 11 12 11 10 11 9 7 6 9 7 6 4 3 3 4 5 1 5 5 5 5 2 4 4 10 10 13 13 12 11 12 10 8 6 4 2 2 2 4 3 3 3 3 1 3 7 6 7 7 9 11 13 14 14 14 11 11 13 12 13 13 12 10 10 11 10 10 8 7 7 7 6 7 6 6 7 6 6 6 6 6 5 6 5 4 3 4 4 4 4 4 5 6 5 5 4
Wind_Direction
255 230 231 234 243 253 241 207 241 186 240 243 252 238 175 27 35 274 241 155 222 83 28 225 312 289 301 338 326 343 12 1 19 307 57 126 271 102 117 135 128 127 136 136 125 131 130 124 128 128 130 131 132 129 130 132 132 131 130 131 130 131 132 134 133 134 133 131 129 129 130 132 129 129 133 133 133 133 131 130 132 131 128 131 129 125 128 121 115 110 103 98 94 95 96 101 96
225 225 237 235 239 242 211 216 261 239 206 255 245 255 88 102 127 230 207 227 23 68 358 315 282 290 292 298 296 314 83 45 42 84 89 121 151 118 122 130 127 131 126 136 137 136 134 134 129 131 130 128 130 131 130 132 133 132 132 131 130 130 132 132 132 134 133 132 129 132 136 138 133 133 135 135 135 131 130 136 137 131 132 133 130 131 131 120 121 114 107 104 98 94 95 93 94
243 219 209 222 233 237 296 212 243 243 241 244 243 172 65 275 340 87 2 10 360 352 323 278 281 232 213 212 208 260 80 90 75 85 108 142 143 130 137 131 126 126 132 139 140 138 135 136 131 131 133 128 129 130 130 132 133 132 132 131 131 130 131 130 129 131 135 135 136 141 146 144 140 138 137 142 139 137 137 140 135 133 138 131 128 132 129 127 124 120 113 107 99 92 93 93 96
283 235 232 198 212 208 240 213 249 273 256 270 296 87 274 67 64 2 49 323 290 309 275 256 266 63 286 201 48 135 74 73 44 92 118 166 109 138 131 129 129 125 130 146 142 139 139 136 136 134 134 130 131 130 131 133 131 131 130 132 132 130 129 129 132 137 138 141 143 146 149 146 145 144 144 147 143 139 139 135 137 140 133 134 137 137 134 127 126 122 117 113 104 94 88 92 90
255 220 254 240 265 216 231 231 246 247 248 248 281 100 104 290 43 51 313 353 247 243 231 260 245 113 47 34 10 332 80 97 76 77 116 101 118 131 129 133 135 133 140 142 142 134 136 138 139 137 137 137 134 133 132 132 130 130 132 132 132 133 133 135 138 142 143 143 148 149 145 146 149 151 149 141 135 146 143 146 149 132 138 140 142 141 138 137 134 128 126 122 113 100 88 90 92
239 236 210 257 242 350 280 246 228 239 265 285 271 78 84 41 328 9 292 244 287 256 255 262 285 153 150 49 26 57 1 293 89 101 135 125 131 131 133 137 143 136 143 138 138 141 144 140 140 139 138 137 136 131 135 135 133 133 134 135 136 137 139 139 142 146 147 148 148 148 150 152 156 155 151 141 140 144 133 132 126 134 144 144 140 143 135 135 134 130 126 123 111 100 100 91 94
208 216 190 226 249 245 251 248 249 245 207 301 276 347 39 16 345 297 291 298 194 268 143 251 213 119 137 118 79 51 28 103 166 122 167 131 131 137 140 141 139 132 132 133 138 137 143 140 141 140 139 140 136 136 137 135 134 136 134 135 138 141 141 142 145 148 151 150 148 149 151 154 150 149 153 136 143 143 135 132 137 143 149 144 141 135 133 138 130 123 120 109 95 94 88 93 91
264 248 170 227 222 204 223 250 260 273 95 273 35 313 31 351 316 311 292 287 116 242 155 218 245 245 92 180 76 55 69 77 78 136 138 143 138 141 142 140 138 137 140 135 139 139 134 140 143 142 140 140 142 141 140 139 138 135 136 138 141 141 143 147 148 149 149 150 147 149 152 150 149 141 144 137 145 140 143 141 139 143 133 128 131 136 143 127 116 95 75 74 67 69 76 90 100
222 239 239 247 254 206 250 242 255 227 284 155 128 57 233 319 312 303 269 234 331 237 243 223 169 237 125 89 82 88 90 112 118 131 137 145 143 143 144 145 142 143 143 135 129 137 146 138 143 143 143 143 143 143 142 143 141 140 137 137 139 140 144 148 149 142 144 145 145 149 148 147 146 141 138 143 138 140 148 143 139 139 130 135 139 135 122 113 93 77 73 65 66 66 79 111 117
219 239 193 241 261 243 229 241 231 239 190 59 336 66 342 15 321 270 292 258 236 27 215 239 210 212 119 112 113 107 107 123 133 141 144 144 144 142 145 145 141 141 143 134 132 143 144 142 140 142 144 146 145 147 145 138 133 131 134 136 139 141 142 141 142 146 149 145 145 147 146 149 152 140 139 140 138 142 145 137 138 133 132 133 127 120 115 107 97 87 77 69 67 72 82 102 126
224 197 278 259 236 252 245 247 217 162 219 121 164 160 12 288 331 319 277 308 294 245 119 219 224 142 110 70 64 105 118 143 148 146 146 145 144 142 144 147 145 144 138 136 138 137 142 148 140 141 143 146 146 146 140 135 134 134 135 135 138 139 140 138 139 140 144 147 144 145 149 153 146 143 137 137 139 143 144 141 136 128 132 126 125 120 115 103 89 78 74 72 76 82 92 110 115
241 213 200 242 245 241 236 251 212 107 119 208 158 54 59 327 295 314 341 261 148 197 225 178 213 124 118 131 127 133 145 156 151 145 151 146 145 146 144 149 146 139 138 137 137 138 145 144 149 146 146 145 146 141 139 138 136 134 131 130 132 130 132 140 142 140 147 149 136 140 141 144 152 140 136 135 132 134 139 131 134 133 132 125 126 117 106 99 88 79 77 79 86 100 101 105 108
251 251 225 251 257 246 263 304 286 326 7 190 102 78 242 310 340 322 315 284 193 233 212 202 23 132 146 136 121 153 163 159 152 149 150 154 138 132 143 145 144 141 141 143 142 144 145 148 146 154 149 144 138 138 138 136 132 131 130 128 130 131 135 142 145 146 143 128 135 139 135 146 150 141 138 138 139 138 137 139 132 133 130 123 120 114 105 94 85 82 84 90 104 107 108 107 113
241 265 271 254 258 276 291 254 272 188 222 97 99 70 7 301 6 320 329 258 140 312 41 24 188 93 102 126 151 158 163 162 148 155 152 150 146 148 148 147 141 144 147 149 149 146 150 148 149 150 151 152 147 143 133 125 127 126 127 128 131 135 135 132 133 136 136 137 141 145 151 157 151 143 141 143 142 138 136 136 136 136 129 124 120 113 99 88 83 84 89 96 109 117 114 116 114
251 254 272 272 276 270 228 259 248 220 104 138 86 329 284 109 304 324 320 295 78 336 5 274 16 165 154 200 173 172 165 166 155 150 153 150 143 143 145 141 141 150 156 155 153 153 150 151 151 150 155 153 151 151 149 131 127 125 126 128 132 137 137 136 141 143 140 142 142 147 156 159 144 145 144 143 148 140 141 137 139 135 131 127 122 113 108 98 91 88 93 102 116 124 124 120 120
262 282 248 260 249 256 217 228 253 301 109 123 107 73 264 272 87 293 43 291 74 239 255 154 234 288 153 217 150 158 160 159 155 154 155 148 142 143 143 148 152 158 154 157 156 155 153 154 152 154 155 153 156 151 147 142 135 132 128 130 133 137 139 140 140 144 144 139 142 153 150 150 151 148 149 150 150 145 146 147 139 136 134 129 123 118 110 110 115 108 100 112 119 128 128 126 123
241 263 256 233 254 234 188 224 139 238 99 74 68 74 325 293 57 227 243 228 240 122 196 57 142 211 156 125 155 146 153 152 159 159 155 150 154 151 152 155 159 156 157 160 159 161 156 156 155 154 154 156 153 150 149 146 139 139 137 135 138 139 140 141 137 137 138 139 142 141 151 155 138 146 158 153 152 153 142 138 143 137 131 127 123 114 113 120 117 116 117 115 138 137 138 129 126
221 229 239 241 258 232 335 199 97 33 81 68 2 34 336 281 26 34 225 188 57 142 189 112 59 69 132 139 135 145 152 158 167 163 160 160 164 157 163 162 164 163 163 161 164 162 157 157 158 155 155 156 151 151 150 148 150 156 152 146 149 144 144 143 147 152 151 144 136 136 134 96 129 146 148 148 151 147 142 146 141 133 130 127 124 120 116 115 126 126 130 132 134 154 155 158 150
223 228 236 251 219 55 319 25 10 303 28 341 342 288 331 335 278 44 285 164 154 179 157 157 115 103 101 119 131 145 158 163 168 169 165 165 166 164 164 165 169 164 167 163 165 159 153 158 159 159 157 153 153 153 152 150 157 160 155 156 150 154 151 157 154 153 151 137 142 114 98 102 120 139 171 159 147 146 139 147 139 134 132 131 134 129 132 129 123 181 150 151 165 178 192 179 169
228 251 232 233 270 57 16 310 24 295 356 293 315 323 283 327 262 30 278 285 163 189 124 151 167 144 136 144 150 154 164 166 169 170 170 167 168 167 169 163 172 171 168 161 167 156 149 154 166 158 158 159 159 154 152 154 158 160 158 156 156 157 156 150 154 151 139 130 100 116 114 122 116 172 164 148 140 148 141 139 140 134 134 138 140 146 145 149 152 192 231 175 182 194 196 162 178
189 238 245 242 41 318 90 357 32 345 293 309 282 325 265 255 315 273 330 259 218 128 164 237 157 163 141 144 151 157 168 168 173 172 173 172 172 171 174 170 179 169 166 149 130 133 158 155 168 165 164 161 156 155 155 159 160 160 153 154 157 158 158 158 165 131 128 119 126 129 151 151 177 197 175 167 159 158 157 152 154 162 162 154 171 160 178 156 174 180 192 224 210 210 196 152 187
261 237 248 279 326 264 170 274 39 295 317 272 280 257 281 355 248 247 269 280 345 166 181 193 157 165 147 157 165 165 172 174 175 177 177 176 177 175 177 177 166 163 160 159 153 140 173 169 183 168 168 163 161 163 162 157 162 160 154 160 156 154 136 136 134 132 147 143 145 177 161 155 186 191 176 175 161 163 157 161 171 169 170 167 198 185 180 161 195 179 187 202 223 199 221 180 179
244 233 255 264 273 272 39 221 239 306 279 282 281 281 320 263 285 268 272 267 31 169 101 146 172 133 162 179 164 173 180 176 177 184 183 183 180 181 178 176 172 174 175 165 154 163 175 176 200 172 171 161 161 161 158 163 166 152 151 154 159 157 149 130 136 142 155 181 168 184 184 174 188 174 170 168 160 167 166 164 163 156 169 169 175 197 178 182 196 188 189 207 209 207 199 193 186
245 260 230 231 234 241 262 279 276 259 258 264 277 303 266 271 254 93 247 247 272 76 156 190 156 153 175 167 186 176 177 182 181 186 189 186 186 182 179 179 178 176 178 162 161 165 190 179 173 180 173 165 164 158 164 162 137 127 138 147 153 131 132 128 131 155 169 171 186 198 182 204 164 155 157 160 153 151 140 138 131 159 165 154 166 184 162 189 196 190 193 207 207 205 206 188 201
233 242 257 269 261 258 259 257 259 259 265 269 264 260 258 250 262 311 246 256 116 153 192 173 152 159 151 187 186 181 175 181 185 182 193 189 187 185 177 182 180 175 175 176 160 183 180 177 157 183 169 160 162 158 160 146 139 133 144 148 144 141 134 125 143 180 180 188 194 208 193 175 172 145 151 153 151 136 136 137 148 154 150 149 164 148 150 153 169 174 211 205 207 211 215 203 202
225 249 253 252 251 259 256 251 246 253 263 253 255 251 251 250 259 252 245 228 149 129 205 172 159 162 162 172 181 180 177 182 184 187 188 187 185 185 183 185 170 171 185 175 182 185 157 149 165 164 199 184 171 169 162 128 134 119 154 154 137 132 125 116 144 171 189 202 190 227 141 237 149 154 151 155 149 143 150 157 165 155 162 160 159 145 162 172 173 182 187 196 195 209 211 197 199
29 247 242 254 255 251 242 257 261 259 254 255 254 256 247 232 227 230 219 186 199 183 201 180 173 168 164 180 184 178 181 184 187 184 185 187 182 188 191 185 175 170 187 186 181 184 95 159 169 139 172 255 175 164 153 133 153 166 170 152 157 155 130 136 163 172 210 209 200 183 167 167 152 147 157 151 143 157 150 156 162 161 162 141 156 150 161 173 176 187 200 172 209 225 214 209 207
252 269 278 260 260 258 259 246 246 249 241 231 243 250 246 244 237 251 171 161 180 213 199 181 184 166 180 168 169 176 186 186 185 189 189 187 187 190 191 181 166 180 180 180 187 111 141 159 153 166 161 199 226 157 156 152 160 174 161 155 170 137 129 163 179 187 195 214 181 168 170 152 156 149 152 152 151 157 153 157 145 166 152 143 176 154 163 170 192 195 213 185 205 207 206 209 222
258 256 255 248 241 244 231 237 229 220 246 226 252 262 241 224 230 231 227 180 180 221 210 176 194 163 179 160 168 183 186 188 189 193 194 191 191 192 191 179 176 179 173 175 186 131 171 168 153 174 166 164 181 190 176 164 164 168 166 150 157 129 152 171 191 213 211 177 159 164 160 157 161 149 155 158 152 163 147 155 158 161 168 168 157 157 167 182 192 189 189 223 212 235 225 213 222
255 247 257 262 246 239 222 219 221 233 251 217 203 245 231 213 219 226 192 189 187 207 211 203 141 144 196 165 181 182 182 188 194 197 193 197 192 192 190 183 173 181 169 184 158 153 178 161 154 149 169 165 213 191 184 178 171 173 149 152 160 156 166 180 196 158 214 174 169 167 163 160 167 158 160 154 169 153 152 171 161 171 172 160 149 173 181 203 204 183 200 211 202 219 221 195 216
241 237 231 249 254 247 195 190 181 235 157 186 219 257 260 225 198 210 156 208 190 209 222 203 174 153 192 188 190 191 181 193 195 198 197 192 192 191 189 180 178 181 173 181 176 167 170 166 165 152 158 191 191 190 191 185 185 165 162 148 161 171 168 174 178 167 167 164 162 163 170 161 171 160 162 162 180 159 161 173 166 171 148 169 182 192 203 208 178 197 203 222 173 244 277 205 128
228 243 217 222 243 133 138 172 171 241 135 216 209 244 257 275 177 145 157 195 204 212 218 205 210 169 173 187 201 196 184 188 196 200 198 193 193 190 189 185 186 180 187 183 176 168 172 175 165 151 173 187 189 174 187 174 175 175 175 159 159 171 171 174 163 162 168 163 167 158 171 166 174 167 163 167 177 173 171 160 183 161 150 195 183 166 235 204 169 204 218 56 318 219 188 165 295
211 235 246 230 203 189 175 171 200 243 95 169 228 256 208 243 125 146 179 213 204 216 220 211 208 200 174 185 181 194 186 185 201 201 196 191 192 187 188 189 185 184 187 188 182 178 177 181 175 158 180 174 162 183 180 168 191 186 157 160 162 175 163 170 163 166 175 169 171 162 172 169 181 168 170 175 175 190 177 158 189 135 175 182 157 171 212 48 241 215 225 205 198 256 238 175 190
212 204 241 260 210 212 240 129 190 179 227 215 201 247 262 49 109 166 186 218 205 218 218 225 206 199 199 180 193 178 202 188 201 197 197 195 190 189 190 192 188 187 190 192 189 184 180 188 180 176 174 171 177 173 170 167 172 183 140 158 159 164 168 147 146 198 169 180 174 164 171 172 180 170 178 173 184 199 187 165 144 166 173 168 168 191 211 167 192 193 202 218 238 215 213 208 206
227 202 220 233 245 274 274 187 144 203 174 263 214 236 255 265 216 166 200 217 217 212 218 226 211 206 210 195 186 182 215 206 201 206 195 189 192 189 193 193 189 192 194 195 192 189 188 190 185 179 175 171 167 172 162 168 129 170 204 153 153 159 174 160 170 205 183 177 152 178 169 170 178 170 180 174 185 183 198 146 154 165 173 175 177 198 175 190 184 171 203 191 227 243 211 213 246
280 257 220 239 229 210 224 223 134 223 208 218 233 243 237 233 245 252 181 204 218 220 215 229 225 215 225 217 203 191 196 198 195 222 224 188 196 191 194 194 183 195 198 199 197 194 197 193 187 182 177 172 156 164 154 146 173 181 191 166 154 154 195 172 182 185 185 177 180 192 171 173 174 173 177 176 188 189 181 165 160 174 180 187 176 203 181 174 180 182 185 190 189 218 208 106 97
302 305 292 245 269 246 239 266 94 156 264 251 264 257 262 272 273 258 227 183 215 225 222 218 223 210 225 223 216 206 190 196 183 203 218 212 195 198 201 202 201 195 201 203 200 199 200 199 191 181 172 172 160 172 183 179 179 195 187 159 153 168 176 179 177 193 184 195 187 174 167 184 168 171 178 179 184 192 181 169 170 186 187 194 179 195 176 168 179 182 186 178 189 196 170 121 34
259 264 261 252 240 252 262 222 156 224 247 257 244 254 253 256 250 247 264 210 204 219 226 226 222 227 209 236 254 210 187 191 184 208 201 214 202 202 201 206 203 204 207 208 203 202 199 203 202 187 164 180 165 172 172 164 194 175 202 170 187 171 160 177 183 191 160 25 318 206 172 185 161 173 180 187 198 183 191 158 185 188 192 190 188 180 170 167 181 189 178 183 192 199 172 102 121
247 250 258 261 253 258 156 151 153 215 233 257 255 250 244 235 234 247 246 255 202 218 231 225 225 232 233 216 219 216 176 175 203 217 223 214 207 208 210 209 208 210 212 211 211 208 203 200 212 200 170 187 168 172 206 159 264 234 197 141 151 163 164 184 199 124 111 220 244 229 160 181 168 172 183 187 183 190 187 180 189 203 185 188 180 175 171 177 187 194 191 189 185 221 143 123 143
250 238 239 247 261 240 233 180 159 226 249 280 291 278 273 271 261 261 256 251 225 209 224 232 225 228 232 234 230 135 219 211 193 212 216 204 208 209 211 214 213 216 215 212 211 213 210 195 198 196 132 186 161 173 166 169 137 41 34 50 55 46 151 140 30 51 333 288 226 274 159 221 172 193 182 183 193 188 190 173 186 198 179 187 171 180 180 187 181 196 190 200 203 196 182 165 154
222 243 251 250 240 248 268 245 213 217 236 249 264 264 259 249 246 243 237 236 247 213 215 225 228 231 226 231 238 175 200 208 210 210 206 200 205 213 215 213 216 223 220 214 208 209 210 201 192 171 197 192 174 129 124 87 91 116 135 104 116 131 100 89 97 194 241 147 252 231 256 187 188 190 184 193 193 187 174 194 179 196 176 174 174 185 217 195 192 194 191 195 209 210 182 99 177
231 220 239 251 264 277 252 240 260 243 244 227 229 264 253 244 239 237 237 219 215 225 220 220 226 226 229 226 228 226 178 201 205 208 198 193 197 228 214 208 214 223 222 215 212 209 210 194 199 190 176 85 130 132 107 110 132 165 151 144 158 175 153 172 200 200 201 193 191 229 203 190 186 197 189 194 194 184 193 191 191 154 200 168 183 188 210 196 204 193 188 188 193 226 202 154 173
245 220 217 229 244 256 274 269 255 258 259 290 245 244 273 269 259 240 235 237 218 205 228 235 226 228 231 235 236 230 203 187 198 189 189 200 203 220 216 212 216 223 222 215 208 203 202 182 213 200 133 103 159 111 129 148 154 160 152 152 165 162 173 183 192 211 200 180 219 217 216 182 195 187 192 185 184 189 187 193 188 199 164 184 185 196 196 208 200 204 179 180 190 180 184 208 162
234 253 222 281 248 247 249 252 253 263 276 242 187 251 275 269 253 242 223 241 218 212 220 225 240 236 237 241 236 232 234 214 178 183 193 208 218 213 211 208 216 224 228 218 195 205 196 12 307 254 124 109 83 119 138 164 167 160 159 151 144 150 166 173 166 230 225 256 229 213 196 186 190 187 183 188 182 188 185 191 183 191 194 185 185 187 184 202 195 204 176 178 185 167 190 203 187
239 189 315 246 251 251 255 248 248 253 256 259 234 220 248 255 267 267 236 219 208 223 218 193 219 245 257 261 263 260 250 244 181 175 185 203 217 208 210 214 220 229 231 68 36 70 40 22 2 334 81 130 193 161 156 173 163 175 165 157 163 150 153 133 145 119 203 240 249 218 163 190 189 185 181 181 181 180 184 183 184 181 187 189 185 191 187 190 176 194 157 175 136 162 159 194 269
241 264 206 255 269 278 260 256 250 248 248 252 254 246 252 257 262 259 250 241 203 229 191 158 195 234 283 309 304 292 268 251 177 174 182 203 228 216 215 225 217 230 83 99 98 94 85 170 162 147 150 174 170 154 144 143 152 220 166 175 151 144 146 159 178 164 178 219 240 239 174 194 174 168 178 176 175 173 178 177 180 181 185 183 194 176 180 170 184 179 171 160 162 156 150 207 207
275 322 261 222 233 237 234 248 263 259 243 241 245 252 254 266 250 265 278 328 94 94 85 265 174 261 268 246 266 267 254 238 181 177 191 202 213 206 216 228 217 94 102 104 106 97 121 127 171 146 108 121 190 138 121 127 181 201 182 174 150 148 150 169 173 181 188 154 216 264 196 177 171 163 169 166 176 175 174 174 179 176 179 174 190 160 174 163 178 167 173 158 167 180 179 198 205
221 224 227 242 225 226 236 232 232 247 249 250 242 246 241 252 233 261 59 239 123 240 158 185 217 228 197 257 233 240 254 248 165 180 181 190 180 161 120 126 130 102 98 103 111 124 155 154 148 133 142 135 121 129 138 159 174 185 182 163 160 158 158 171 173 177 180 167 182 213 221 168 165 158 163 164 169 165 169 169 178 177 175 176 178 163 166 161 166 169 170 180 187 156 158 156 207
226 221 232 235 227 209 227 219 225 226 245 247 261 246 241 234 251 239 138 189 97 57 321 113 293 317 291 241 237 237 247 49 165 193 185 191 184 162 151 128 124 116 115 121 123 132 144 152 160 162 144 127 130 139 146 162 174 175 178 166 168 162 167 170 180 155 173 158 193 225 196 168 165 167 166 164 162 174 166 176 176 179 169 171 166 156 167 175 156 172 179 182 193 177 169 191 206
214 217 216 222 224 218 236 240 234 237 229 245 232 258 259 288 215 342 107 100 79 86 82 66 30 153 264 266 272 163 134 177 175 174 145 181 183 163 142 160 138 138 141 132 135 148 158 158 169 165 173 152 146 151 152 161 172 169 173 169 166 167 172 173 167 154 163 160 212 209 179 164 162 167 162 158 162 167 170 173 173 176 162 159 163 160 152 158 167 173 173 187 184 191 185 220 210
212 221 220 226 234 223 227 238 246 241 256 221 203 223 250 242 92 93 86 97 97 102 104 89 92 68 80 344 67 94 151 152 144 109 124 232 201 138 147 118 127 141 145 140 146 163 165 164 167 164 164 162 154 151 149 157 168 175 172 169 157 159 174 172 160 157 161 202 208 172 175 159 162 162 152 150 151 172 152 169 165 160 150 152 163 155 158 159 155 184 160 161 185 201 194 204 193
203 216 228 235 231 234 265 283 304 358 291 236 191 239 234 257 114 75 146 124 111 122 106 175 104 97 100 113 62 46 42 106 152 130 156 157 135 126 128 137 149 159 145 151 158 160 173 176 175 167 167 169 165 159 160 156 166 171 172 162 153 163 178 171 168 166 186 196 180 176 158 161 155 147 154 151 156 163 158 166 167 161 153 157 155 166 176 172 165 177 167 162 194 177 188 201 204
181 207 215 226 228 237 230 252 259 221 250 264 281 209 235 80 190 171 186 145 129 155 131 111 91 95 81 84 94 101 41 61 79 97 97 117 118 126 143 148 163 168 171 174 170 168 182 183 175 171 171 174 171 172 166 157 164 169 170 165 147 154 175 183 165 177 171 172 168 163 152 155 145 155 148 139 161 150 161 171 170 156 160 163 158 170 169 181 174 183 172 171 194 184 197 194 195
244 223 219 225 234 255 259 270 226 225 244 247 242 247 228 211 216 6 348 200 122 88 86 84 123 123 98 102 95 90 82 63 49 61 109 139 128 123 131 137 148 183 193 179 163 176 192 196 194 182 173 171 171 172 169 161 162 166 162 157 150 151 152 134 207 170 163 163 161 155 151 150 161 154 150 150 150 150 156 165 160 147 159 167 166 178 170 167 177 176 191 186 184 175 195 194 200
238 234 202 237 188 217 214 229 230 247 241 251 244 260 252 275 122 173 194 258 118 121 111 132 104 100 85 97 94 96 101 98 94 105 105 118 132 151 156 164 176 188 190 199 174 190 196 198 203 193 179 172 170 169 164 159 159 157 157 155 159 157 163 182 188 163 161 157 155 151 155 159 150 150 150 149 155 153 150 147 148 146 161 164 179 154 168 161 174 180 170 192 186 185 201 194 196
230 246 238 244 282 247 227 206 246 247 248 240 239 236 242 35 82 115 182 102 90 96 126 122 98 92 139 87 77 75 68 82 104 112 135 142 154 169 166 166 176 187 186 187 185 194 198 216 197 187 172 172 171 172 163 160 161 160 157 154 151 149 178 183 182 166 157 153 151 156 161 159 155 155 152 154 159 157 154 161 161 160 167 164 171 172 198 136 179 162 179 182 187 204 200 192 194
199 219 231 211 227 256 248 255 249 255 265 253 245 238 83 33 27 54 98 113 117 109 96 93 96 67 62 66 62 56 67 87 86 67 50 65 98 130 152 165 175 191 187 166 186 200 192 197 192 173 173 172 178 178 166 162 163 158 156 158 154 159 199 188 175 164 157 152 151 162 159 152 156 156 152 161 160 155 157 159 162 156 168 162 164 182 159 160 157 166 173 183 171 194 194 184 186
207 213 220 224 217 216 224 225 197 241 264 272 267 292 8 84 26 167 98 99 95 81 88 105 77 76 70 58 53 51 48 44 46 40 41 30 53 9 68 100 114 173 191 133 231 244 199 194 170 190 183 176 179 174 166 163 160 156 158 158 160 168 183 182 164 161 161 150 155 165 150 155 158 147 159 161 155 153 155 169 160 175 159 169 174 177 177 187 168 148 158 181 176 187 204 157 187